Hourly Weather Chaglinka

Today, 12 June, Saturday

Time Temperature Precipitation Wind Pressure Humidity
00:00 +13°C° 0 mm 2 mps 742 mmHg 59%
01:00 +12°C° 0 mm 2 mps 742 mmHg 61%
02:00 +12°C° 0 mm 1 mps 742 mmHg 63%
03:00 +12°C° 0 mm 1 mps 742 mmHg 65%
04:00 +11°C° 0 mm 1 mps 742 mmHg 67%
05:00 +10°C° 0 mm 0 mps 742 mmHg 67%
06:00 +13°C° 0 mm 1 mps 743 mmHg 61%
07:00 +15°C° 0 mm 2 mps 743 mmHg 55%
08:00 +17°C° 0 mm 2 mps 743 mmHg 50%
09:00 +18°C° 0 mm 3 mps 743 mmHg 45%
10:00 +19°C° 0 mm 3 mps 743 mmHg 41%
11:00 +20°C° 0 mm 3 mps 743 mmHg 36%
12:00 +21°C° 0 mm 4 mps 743 mmHg 35%
13:00 +21°C° 0 mm 4 mps 743 mmHg 33%
14:00 +22°C° 0 mm 4 mps 743 mmHg 32%
15:00 +22°C° 0 mm 4 mps 743 mmHg 32%
16:00 +22°C° 0 mm 4 mps 743 mmHg 32%
17:00 +22°C° 0 mm 4 mps 742 mmHg 32%
18:00 +21°C° 0 mm 4 mps 742 mmHg 37%
19:00 +19°C° 0 mm 3 mps 742 mmHg 42%
20:00 +18°C° 0 mm 2 mps 742 mmHg 47%
21:00 +17°C° 0 mm 2 mps 743 mmHg 50%
22:00 +16°C° 0 mm 2 mps 743 mmHg 52%
23:00 +14°C° 0 mm 2 mps 743 mmHg 54%

Tomorrow, 13 June, Sunday

Time Temperature Precipitation Wind Pressure Humidity
00:00 +14°C° 0 mm 2 mps 743 mmHg 55%
01:00 +14°C° 0 mm 2 mps 743 mmHg 55%
02:00 +13°C° 0 mm 2 mps 744 mmHg 56%
03:00 +13°C° 0 mm 1 mps 744 mmHg 56%
04:00 +13°C° 0 mm 1 mps 744 mmHg 56%
05:00 +13°C° 0 mm 1 mps 744 mmHg 56%
06:00 +15°C° 0 mm 1 mps 744 mmHg 53%
07:00 +17°C° 0 mm 2 mps 744 mmHg 50%
08:00 +18°C° 0 mm 2 mps 745 mmHg 47%
09:00 +20°C° 0 mm 3 mps 745 mmHg 44%
10:00 +22°C° 0 mm 4 mps 745 mmHg 41%
11:00 +23°C° 0 mm 5 mps 744 mmHg 39%
12:00 +25°C° 0 mm 5 mps 744 mmHg 37%
13:00 +25°C° 0 mm 5 mps 744 mmHg 36%
14:00 +26°C° 0 mm 5 mps 744 mmHg 35%
15:00 +26°C° 0 mm 4 mps 744 mmHg 37%
16:00 +25°C° 0 mm 3 mps 744 mmHg 39%
17:00 +25°C° 0 mm 3 mps 744 mmHg 41%
18:00 +24°C° 0 mm 2 mps 744 mmHg 44%
19:00 +23°C° 0 mm 2 mps 744 mmHg 47%
20:00 +22°C° 0 mm 1 mps 744 mmHg 50%
21:00 +21°C° 0 mm 1 mps 744 mmHg 52%
22:00 +20°C° 0 mm 1 mps 744 mmHg 55%
23:00 +17°C° 0 mm 0 mps 744 mmHg 57%

Day after tomorrow, 14 June, Monday

Time Temperature Precipitation Wind Pressure Humidity
00:00 +16°C° 0 mm 0 mps 744 mmHg 59%
01:00 +16°C° 0 mm 0 mps 744 mmHg 62%
02:00 +15°C° 0 mm 0 mps 744 mmHg 64%
03:00 +15°C° 0 mm 0 mps 744 mmHg 65%
04:00 +15°C° 0 mm 0 mps 745 mmHg 65%
05:00 +15°C° 0 mm 0 mps 745 mmHg 66%
06:00 +19°C° 0 mm 1 mps 745 mmHg 60%
07:00 +21°C° 0 mm 1 mps 745 mmHg 54%
08:00 +23°C° 0 mm 2 mps 745 mmHg 48%
09:00 +25°C° 0 mm 2 mps 745 mmHg 44%
10:00 +26°C° 0 mm 2 mps 745 mmHg 40%
11:00 +27°C° 0 mm 3 mps 745 mmHg 36%
12:00 +27°C° 0 mm 3 mps 745 mmHg 34%
13:00 +28°C° 0 mm 3 mps 744 mmHg 32%
14:00 +29°C° 0 mm 3 mps 744 mmHg 30%
15:00 +29°C° 0 mm 3 mps 744 mmHg 29%
16:00 +29°C° 0 mm 3 mps 744 mmHg 29%
17:00 +29°C° 0 mm 3 mps 744 mmHg 29%
18:00 +27°C° 0 mm 2 mps 743 mmHg 35%
19:00 +26°C° 0 mm 2 mps 743 mmHg 40%
20:00 +25°C° 0 mm 2 mps 743 mmHg 46%
21:00 +24°C° 0 mm 2 mps 743 mmHg 46%
22:00 +23°C° 0 mm 1 mps 743 mmHg 46%
23:00 +22°C° 0 mm 1 mps 743 mmHg 46%

15 June, Tuesday

Time Temperature Precipitation Wind Pressure Humidity
00:00 +22°C° 0 mm 1 mps 743 mmHg 48%
01:00 +21°C° 0 mm 1 mps 742 mmHg 50%
02:00 +20°C° 0 mm 1 mps 742 mmHg 51%
03:00 +20°C° 0 mm 1 mps 742 mmHg 52%
04:00 +20°C° 0 mm 1 mps 742 mmHg 53%
05:00 +20°C° 0 mm 1 mps 742 mmHg 53%
06:00 +21°C° 0 mm 1 mps 743 mmHg 50%
07:00 +23°C° 0 mm 1 mps 743 mmHg 46%
08:00 +25°C° 0 mm 1 mps 743 mmHg 43%
09:00 +26°C° 0 mm 1 mps 743 mmHg 38%
10:00 +28°C° 0 mm 1 mps 742 mmHg 34%
11:00 +29°C° 0 mm 1 mps 742 mmHg 29%
12:00 +30°C° 0 mm 2 mps 742 mmHg 28%
13:00 +30°C° 0 mm 2 mps 741 mmHg 27%
14:00 +31°C° 0 mm 3 mps 741 mmHg 26%
15:00 +30°C° 0 mm 3 mps 741 mmHg 26%
16:00 +30°C° 0 mm 3 mps 741 mmHg 26%
17:00 +30°C° 0 mm 3 mps 740 mmHg 26%
18:00 +29°C° 0 mm 2 mps 740 mmHg 30%
19:00 +27°C° 0 mm 2 mps 740 mmHg 34%
20:00 +26°C° 0 mm 1 mps 739 mmHg 38%
21:00 +25°C° 0 mm 1 mps 739 mmHg 38%
22:00 +24°C° 0 mm 1 mps 739 mmHg 38%
23:00 +22°C° 0 mm 1 mps 739 mmHg 39%

16 June, Wednesday

Time Temperature Precipitation Wind Pressure Humidity
00:00 +22°C° 0 mm 1 mps 739 mmHg 40%
01:00 +22°C° 0 mm 1 mps 739 mmHg 41%
02:00 +20°C° 0 mm 2 mps 739 mmHg 43%
03:00 +20°C° 0 mm 2 mps 739 mmHg 44%
04:00 +20°C° 0 mm 2 mps 739 mmHg 45%
05:00 +20°C° 0 mm 2 mps 739 mmHg 46%
06:00 +23°C° 0 mm 2 mps 739 mmHg 43%
07:00 +25°C° 0 mm 2 mps 739 mmHg 40%
08:00 +27°C° 0 mm 3 mps 739 mmHg 37%
09:00 +28°C° 0 mm 3 mps 739 mmHg 35%
10:00 +29°C° 0 mm 3 mps 739 mmHg 33%
11:00 +31°C° 0 mm 3 mps 739 mmHg 31%
12:00 +31°C° 0 mm 3 mps 739 mmHg 29%
13:00 +31°C° 0 mm 3 mps 738 mmHg 28%
14:00 +31°C° 0 mm 3 mps 738 mmHg 27%
15:00 +30°C° 0 mm 4 mps 738 mmHg 30%
16:00 +29°C° 0 mm 4 mps 738 mmHg 33%
17:00 +29°C° 0 mm 5 mps 738 mmHg 37%
18:00 +27°C° 0 mm 4 mps 738 mmHg 41%
19:00 +26°C° 0 mm 3 mps 737 mmHg 45%
20:00 +25°C° 0 mm 2 mps 737 mmHg 49%
21:00 +24°C° 0 mm 2 mps 737 mmHg 50%
22:00 +23°C° 0 mm 2 mps 737 mmHg 51%
23:00 +21°C° 0 mm 2 mps 737 mmHg 51%

17 June, Thursday

Time Temperature Precipitation Wind Pressure Humidity
00:00 +20°C° 0 mm 2 mps 737 mmHg 51%
01:00 +20°C° 0 mm 2 mps 737 mmHg 51%
02:00 +20°C° 0 mm 2 mps 736 mmHg 51%
03:00 +20°C° 0 mm 2 mps 736 mmHg 52%
04:00 +20°C° 0 mm 3 mps 736 mmHg 53%
05:00 +19°C° 0 mm 3 mps 736 mmHg 55%
06:00 +22°C° 0 mm 3 mps 736 mmHg 49%
07:00 +25°C° 0 mm 4 mps 735 mmHg 44%
08:00 +28°C° 0 mm 4 mps 735 mmHg 39%
09:00 +29°C° 0 mm 5 mps 735 mmHg 36%
10:00 +30°C° 0 mm 5 mps 735 mmHg 34%
11:00 +32°C° 0 mm 5 mps 734 mmHg 31%
12:00 +32°C° 0 mm 5 mps 734 mmHg 30%
13:00 +32°C° 0 mm 4 mps 734 mmHg 30%
14:00 +31°C° 0 mm 3 mps 733 mmHg 29%
15:00 +32°C° 0 mm 4 mps 733 mmHg 30%
16:00 +30°C° 0 mm 4 mps 732 mmHg 32%
17:00 +29°C° 0 mm 5 mps 731 mmHg 33%
18:00 +29°C° 0 mm 5 mps 731 mmHg 36%
19:00 +28°C° 0 mm 5 mps 730 mmHg 39%
20:00 +27°C° 0 mm 4 mps 730 mmHg 42%
21:00 +25°C° 0 mm 4 mps 730 mmHg 46%
22:00 +22°C° 0 mm 4 mps 729 mmHg 51%
23:00 +21°C° 0 mm 3 mps 729 mmHg 55%
Show more

We Need Your Consent

Meteoprog and our Service Providers may store and access personal data such as cookies, device identifiers or other similar technologies on your device and process such data to personalise content and ads, as well as provide social media features and to analyse the traffic.

  • Store and/or access information on your device

    Cookies, device identifiers or other information can be stored or accessed on your device for the purposes indicated above.

  • Personalised ads and content, ad and content measurement, audience insights, and products development

    Ads and content can be personalised based on a profile. More data can be added to better personalise ads and content. Ad and content performance can be measured. Insights about the audience who saw the ads and content can be derived. Such data can be used to develop or improve user’s experience, systems and software.

By clicking ‘I Agree’ you will allow the use of indicated cookies, device identifiers, web beacons or other similar technologies. Your settings can be changed in the browser on your device.

For certain purposes, legitimate interests may be relied on, rather than consent. You can read more about this in our Privacy and Cookie Policy.